"Pseudo-MPEC" for P21Cry5

Created 2022 Dec 13 17:22:13 UT using Find_Orb

Click here for an explanation of pseudo-MPECs

 
 Astrometry: 
     P21Cry5* C2022 12 01MA7Ct8PSV_Wf7uob,Ud0JVTWdH:315-_VE\*728GKo3cD\%*kC:;F52
     P21Cry5  C2022 12 01SHLKfQAstrometry\!9u2redacted;82OxTvJ#cgHl,kjG-CIYatF52
     P21Cry5  C2022 12 01m1!,`clickgxr*Mq8#upfbrfhere.$Xx%?vOx]#R*hTj)uforh!%F52
     P21Cry5  C2022 12 01oLrrGh9/:%r7pD0lsc*P;4?oYHexplanationEG#$=*viQ(;X.3QF52

Station data:
(F52) Pan-STARRS 2, Haleakala  (N20.707382 W156.255910)  US/Hawaii.
   Observers J. Bulger, T. Dukes, T. Lowe, A. Schultz, M. Willman. Measurers
   K. Chambers, S. Chastel, T. de Boer, L. Denneau, J. Fairlamb, H.
   Flewelling, M. Huber, C.-C. Lin, E. Magnier, Y. Ramanjooloo, R. Wainscoat,
   R. Weryk. 1.8-m Ritchey-Chrétien + CCD.

Orbital elements:  P21Cry5
   Perihelion 2023 Jan 12.56527 +/- 43.7 TT = 13:33:59 (JD 2459957.06527)
Epoch 2022 Dec  2.0 TT = JDT 2459915.5   Earth MOID: 0.3043      AutoNEOCP
M 350.33064613 +/- 16               (J2000 ecliptic)
n   0.23263057 +/- 0.236            Peri.   30.88565 +/- 55
a   2.61833282 +/- 1.77             Node    73.74024 +/- 17
e   0.5158799 +/- 0.247             Incl.   13.00787 +/- 6
P   4.24                   H 23.55  G  0.15   U 11.8  SR
q 1.26758737 +/- 0.302    Q 3.96907826 +/- 49.2
From 4 observations 2022 Dec. 1 (52.9 min); mean residual 0".07
Residuals in arcseconds: 
221201 F52  .02+  .05-    221201 F52  .12-  .06-    
221201 F52  .02+  .10+    221201 F52  .06+  .01+    

Ephemerides (geocentric):
Date (UTC) HH   RA             Dec           delta  r     elong  mag " sig PA
---- --------  ------------   ------------  ------ ------ -----  --- --------
2022 12 13 17  04 49 33.695   +27 56 07.31  .32725 1.3088 171.2 22.3  53d 171
2022 12 13 18  04 49 32.891   +27 57 57.22  .32717 1.3087 171.2 22.3  53d 171
2022 12 13 19  04 49 32.088   +27 59 47.17  .32710 1.3086 171.1 22.3  53d 171
2022 12 13 20  04 49 31.286   +28 01 37.15  .32703 1.3085 171.0 22.3  53d 171
2022 12 13 21  04 49 30.485   +28 03 27.17  .32695 1.3084 171.0 22.3  53d 171
2022 12 13 22  04 49 29.685   +28 05 17.22  .32688 1.3083 170.9 22.3  53d 171
2022 12 13 23  04 49 28.886   +28 07 07.30  .32681 1.3081 170.9 22.3  53d 171
2022 12 14 00  04 49 28.088   +28 08 57.42  .32673 1.3080 170.8 22.3  53d 171
2022 12 14 01  04 49 27.291   +28 10 47.57  .32666 1.3079 170.8 22.3  53d 171
2022 12 14 02  04 49 26.496   +28 12 37.75  .32659 1.3078 170.7 22.3  53d 171
2022 12 14 03  04 49 25.701   +28 14 27.96  .32652 1.3077 170.7 22.3  53d 171
2022 12 14 04  04 49 24.907   +28 16 18.20  .32645 1.3076 170.6 22.3  53d 171
2022 12 14 05  04 49 24.115   +28 18 08.48  .32638 1.3075 170.6 22.3  53d 170
2022 12 14 06  04 49 23.323   +28 19 58.78  .32631 1.3074 170.5 22.3  53d 170
2022 12 14 07  04 49 22.533   +28 21 49.12  .32624 1.3073 170.5 22.3  53d 170
2022 12 14 08  04 49 21.744   +28 23 39.49  .32617 1.3072 170.4 22.3  53d 170
2022 12 14 09  04 49 20.956   +28 25 29.89  .32610 1.3070 170.4 22.3  53d 170
2022 12 14 10  04 49 20.169   +28 27 20.31  .32603 1.3069 170.3 22.3  53d 170
2022 12 14 11  04 49 19.383   +28 29 10.77  .32596 1.3068 170.3 22.3  53d 170
2022 12 14 12  04 49 18.599   +28 31 01.26  .32589 1.3067 170.2 22.3  53d 170
2022 12 14 13  04 49 17.816   +28 32 51.77  .32582 1.3066 170.2 22.3  53d 170
2022 12 14 14  04 49 17.034   +28 34 42.32  .32575 1.3065 170.1 22.3  53d 170
2022 12 14 15  04 49 16.253   +28 36 32.89  .32569 1.3064 170.1 22.3  53d 170
2022 12 14 16  04 49 15.473   +28 38 23.49  .32562 1.3063 170.0 22.3  53d 170
2022 12 14 17  04 49 14.695   +28 40 14.12  .32555 1.3062 170.0 22.3  53d 170
2022 12 14 18  04 49 13.918   +28 42 04.78  .32548 1.3061 169.9 22.3  53d 170
2022 12 14 19  04 49 13.143   +28 43 55.46  .32542 1.3060 169.9 22.3  53d 170
2022 12 14 20  04 49 12.368   +28 45 46.18  .32535 1.3058 169.8 22.3  53d 170
2022 12 14 21  04 49 11.595   +28 47 36.92  .32529 1.3057 169.8 22.3  53d 169
2022 12 14 22  04 49 10.824   +28 49 27.68  .32522 1.3056 169.7 22.3  54d 169
2022 12 14 23  04 49 10.054   +28 51 18.47  .32516 1.3055 169.7 22.3  54d 169
2022 12 15 00  04 49 09.285   +28 53 09.29  .32509 1.3054 169.6 22.3  54d 169
2022 12 15 01  04 49 08.517   +28 55 00.14  .32503 1.3053 169.6 22.3  54d 169
2022 12 15 02  04 49 07.751   +28 56 51.00  .32496 1.3052 169.5 22.3  54d 169
2022 12 15 03  04 49 06.986   +28 58 41.90  .32490 1.3051 169.5 22.3  54d 169
2022 12 15 04  04 49 06.223   +29 00 32.82  .32483 1.3050 169.4 22.3  54d 169
2022 12 15 05  04 49 05.461   +29 02 23.76  .32477 1.3049 169.4 22.3  54d 169
2022 12 15 06  04 49 04.701   +29 04 14.73  .32471 1.3048 169.3 22.3  54d 169
2022 12 15 07  04 49 03.942   +29 06 05.72  .32465 1.3047 169.2 22.3  54d 169
2022 12 15 08  04 49 03.184   +29 07 56.74  .32458 1.3046 169.2 22.3  54d 169
2022 12 15 09  04 49 02.428   +29 09 47.78  .32452 1.3044 169.1 22.3  54d 169
2022 12 15 10  04 49 01.674   +29 11 38.84  .32446 1.3043 169.1 22.3  54d 169
2022 12 15 11  04 49 00.921   +29 13 29.93  .32440 1.3042 169.0 22.3  55d 169
2022 12 15 12  04 49 00.170   +29 15 21.04  .32434 1.3041 169.0 22.3  55d 169
2022 12 15 13  04 48 59.420   +29 17 12.17  .32428 1.3040 168.9 22.3  55d 169
2022 12 15 14  04 48 58.671   +29 19 03.33  .32422 1.3039 168.9 22.3  55d 170
2022 12 15 15  04 48 57.925   +29 20 54.50  .32416 1.3038 168.8 22.3  55d 170
2022 12 15 16  04 48 57.180   +29 22 45.70  .32410 1.3037 168.8 22.3  55d 170